Time,TemperatureF,DewpointF,PressureIn,WindDirection,WindDirectionDegrees,WindSpeedMPH,WindSpeedGustMPH,Humidity,HourlyPrecipIn,Conditions,Clouds,dailyrainin,SoftwareType,DateUTC
2013-08-12 10:29:00,68.4,65.0,30.00,WNW,302,0.0,0.0,89,0.00,,,0.00,Wunderground v.1.15,2013-08-12 14:29:00,
2013-08-12 10:30:00,68.4,65.0,30.00,WNW,302,0.0,0.0,89,0.00,,,0.00,Wunderground v.1.15,2013-08-12 14:30:00,
2013-08-12 10:40:00,68.9,64.5,30.01,WSW,238,0.0,0.0,86,0.00,,,0.00,Wunderground v.1.15,2013-08-12 14:40:00,
2013-08-12 10:50:00,69.8,64.4,30.00,SW,223,0.0,0.0,83,0.00,,,0.00,Wunderground v.1.15,2013-08-12 14:50:00,
2013-08-12 10:55:00,70.0,64.2,30.01,SW,223,0.0,0.0,82,0.00,,,0.00,Wunderground v.1.15,2013-08-12 14:55:00,
2013-08-12 11:00:00,70.3,64.5,30.00,SW,223,0.0,0.0,82,0.00,,,0.00,Wunderground v.1.15,2013-08-12 15:00:00,
2013-08-12 11:10:00,71.5,64.6,30.00,East,96,0.0,0.0,79,0.00,,,0.00,Wunderground v.1.15,2013-08-12 15:10:00,
2013-08-12 11:19:00,72.7,66.2,30.00,East,82,0.0,0.0,80,0.00,,,0.00,Wunderground v.1.15,2013-08-12 15:19:00,
2013-08-12 11:25:00,73.1,65.5,30.00,East,82,0.0,0.0,77,0.00,,,0.00,Wunderground v.1.15,2013-08-12 15:25:00,
2013-08-12 11:35:00,73.7,61.2,30.00,SSW,196,0.0,0.0,65,0.00,,,0.00,Wunderground v.1.15,2013-08-12 15:35:00,
2013-08-12 11:40:00,73.7,62.1,30.00,SSW,201,0.0,0.0,67,0.00,,,0.00,Wunderground v.1.15,2013-08-12 15:40:00,
2013-08-12 11:50:00,73.8,63.0,30.00,South,184,0.0,0.0,69,0.00,,,0.00,Wunderground v.1.15,2013-08-12 15:50:00,
2013-08-12 12:00:00,74.0,63.2,30.00,South,184,0.0,0.0,69,0.00,,,0.00,Wunderground v.1.15,2013-08-12 16:00:00,
2013-08-12 12:09:00,74.5,63.7,30.00,South,178,0.0,0.0,69,0.00,,,0.00,Wunderground v.1.15,2013-08-12 16:09:00,
2013-08-12 12:20:00,74.4,61.4,29.99,ESE,122,0.0,0.0,64,0.00,,,0.00,Wunderground v.1.15,2013-08-12 16:20:00,
2013-08-12 12:30:00,74.6,63.3,29.99,East,85,0.0,0.0,68,0.00,,,0.00,Wunderground v.1.15,2013-08-12 16:30:00,
2013-08-12 12:40:00,74.7,64.7,29.99,East,83,0.0,0.0,71,0.00,,,0.00,Wunderground v.1.15,2013-08-12 16:40:00,
2013-08-12 12:45:00,74.9,64.9,30.00,East,83,0.0,0.0,71,0.00,,,0.00,Wunderground v.1.15,2013-08-12 16:45:00,
2013-08-12 12:55:00,75.7,64.8,29.99,SE,134,0.0,0.0,69,0.00,,,0.00,Wunderground v.1.15,2013-08-12 16:55:00,
2013-08-12 13:00:00,75.8,64.1,29.99,ESE,119,0.0,0.0,67,0.00,,,0.00,Wunderground v.1.15,2013-08-12 17:00:00,
2013-08-12 13:10:00,76.4,62.9,29.99,East,83,0.0,0.0,63,0.00,,,0.00,Wunderground v.1.15,2013-08-12 17:10:00,
2013-08-12 13:20:00,77.1,63.5,29.99,East,88,0.0,0.0,63,0.00,,,0.00,Wunderground v.1.15,2013-08-12 17:20:00,
2013-08-12 13:30:00,77.1,64.4,29.99,East,88,0.0,0.0,65,0.00,,,0.00,Wunderground v.1.15,2013-08-12 17:30:00,
2013-08-12 13:39:00,77.1,64.4,29.98,ENE,73,0.0,0.0,65,0.00,,,0.00,Wunderground v.1.15,2013-08-12 17:39:00,
2013-08-12 13:44:00,77.6,66.2,29.98,South,175,0.0,0.0,68,0.00,,,0.00,Wunderground v.1.15,2013-08-12 17:44:00,
2013-08-12 13:50:00,77.8,64.2,29.98,ENE,64,0.0,0.0,63,0.00,,,0.00,Wunderground v.1.15,2013-08-12 17:50:00,
2013-08-12 14:00:00,78.2,66.3,29.98,ENE,64,0.0,0.0,67,0.00,,,0.00,Wunderground v.1.15,2013-08-12 18:00:00,
2013-08-12 14:10:00,78.5,66.6,29.98,East,87,0.0,0.0,67,0.00,,,0.00,Wunderground v.1.15,2013-08-12 18:10:00,
2013-08-12 14:15:00,78.4,62.9,29.98,East,88,0.0,0.0,59,0.00,,,0.00,Wunderground v.1.15,2013-08-12 18:15:00,
2013-08-12 14:25:00,78.2,62.7,29.97,SSW,208,0.0,0.0,59,0.00,,,0.00,Wunderground v.1.15,2013-08-12 18:25:00,
2013-08-12 14:35:00,78.5,66.6,29.97,SW,231,0.0,0.0,67,0.00,,,0.00,Wunderground v.1.15,2013-08-12 18:35:00,
2013-08-12 14:39:00,77.9,63.4,29.97,West,269,0.0,0.0,61,0.00,,,0.00,Wunderground v.1.15,2013-08-12 18:39:00,
2013-08-12 14:45:00,77.6,64.9,29.97,West,269,0.0,0.0,65,0.00,,,0.00,Wunderground v.1.15,2013-08-12 18:45:00,
2013-08-12 14:55:00,77.4,65.6,29.97,West,269,0.0,0.0,67,0.00,,,0.00,Wunderground v.1.15,2013-08-12 18:55:00,
2013-08-12 15:00:00,77.1,65.3,29.97,West,270,0.0,0.0,67,0.00,,,0.00,Wunderground v.1.15,2013-08-12 19:00:00,
2013-08-12 15:10:00,76.4,64.2,29.97,West,270,0.0,0.0,66,0.00,,,0.00,Wunderground v.1.15,2013-08-12 19:10:00,
2013-08-12 15:15:00,76.5,63.9,29.97,West,270,0.0,0.0,65,0.00,,,0.00,Wunderground v.1.15,2013-08-12 19:15:00,
2013-08-12 15:24:00,76.8,64.6,29.96,West,270,0.0,0.0,66,0.00,,,0.00,Wunderground v.1.15,2013-08-12 19:24:00,
2013-08-12 15:35:00,77.5,64.8,29.96,West,270,0.0,0.0,65,0.00,,,0.00,Wunderground v.1.15,2013-08-12 19:35:00,
2013-08-12 15:45:00,78.0,66.2,29.95,South,189,0.0,0.0,67,0.00,,,0.00,Wunderground v.1.15,2013-08-12 19:45:00,
2013-08-12 15:55:00,79.2,66.9,29.95,SSW,205,0.0,0.0,66,0.00,,,0.00,Wunderground v.1.15,2013-08-12 19:55:00,
2013-08-12 16:00:00,79.7,67.3,29.95,SSW,205,0.0,0.0,66,0.00,,,0.00,Wunderground v.1.15,2013-08-12 20:00:00,
2013-08-12 16:10:00,80.4,65.7,29.95,SSW,205,0.0,0.0,61,0.00,,,0.00,Wunderground v.1.15,2013-08-12 20:10:00,
2013-08-12 16:19:00,80.2,64.1,29.95,SSW,204,0.0,0.0,58,0.00,,,0.00,Wunderground v.1.15,2013-08-12 20:19:00,
2013-08-12 16:25:00,80.1,64.5,29.95,SSW,204,0.0,0.0,59,0.00,,,0.00,Wunderground v.1.15,2013-08-12 20:25:00,
2013-08-12 16:30:00,80.2,65.1,29.95,SSW,204,0.0,0.0,60,0.00,,,0.00,Wunderground v.1.15,2013-08-12 20:30:00,
2013-08-12 16:35:00,79.8,64.2,29.95,SSW,204,0.0,0.0,59,0.00,,,0.00,Wunderground v.1.15,2013-08-12 20:35:00,
2013-08-12 16:45:00,78.9,65.2,29.94,SSW,204,0.0,0.0,63,0.00,,,0.00,Wunderground v.1.15,2013-08-12 20:45:00,
2013-08-12 16:55:00,79.0,65.3,29.94,SSW,204,0.0,0.0,63,0.00,,,0.00,Wunderground v.1.15,2013-08-12 20:55:00,
2013-08-12 17:00:00,78.9,64.3,29.94,SSW,204,0.0,0.0,61,0.00,,,0.00,Wunderground v.1.15,2013-08-12 21:00:00,
2013-08-12 17:09:00,79.3,64.7,29.94,SSW,200,0.0,0.0,61,0.00,,,0.00,Wunderground v.1.15,2013-08-12 21:09:00,
2013-08-12 17:19:00,78.8,64.7,29.94,SSW,200,0.0,0.0,62,0.00,,,0.00,Wunderground v.1.15,2013-08-12 21:19:00,
2013-08-12 17:24:00,78.5,64.9,29.94,SSW,200,0.0,0.0,63,0.00,,,0.00,Wunderground v.1.15,2013-08-12 21:24:00,
2013-08-12 17:30:00,78.2,65.5,29.94,SSW,200,0.0,0.0,65,0.00,,,0.00,Wunderground v.1.15,2013-08-12 21:30:00,
2013-08-12 17:40:00,78.4,67.4,29.94,SSW,200,0.0,0.0,69,0.00,,,0.00,Wunderground v.1.15,2013-08-12 21:40:00,
2013-08-12 17:55:00,78.7,65.5,29.94,SSW,200,0.0,0.0,64,0.00,,,0.00,Wunderground v.1.15,2013-08-12 21:55:00,
2013-08-12 18:00:00,78.3,65.6,29.93,SSE,150,0.0,0.0,65,0.00,,,0.00,Wunderground v.1.15,2013-08-12 22:00:00,
2013-08-12 18:10:00,78.0,65.3,29.93,SSE,150,0.0,0.0,65,0.00,,,0.00,Wunderground v.1.15,2013-08-12 22:10:00,
2013-08-12 18:19:00,78.1,64.9,29.93,SSE,150,0.0,0.0,64,0.00,,,0.00,Wunderground v.1.15,2013-08-12 22:19:00,
2013-08-12 18:24:00,77.9,64.3,29.93,SSE,150,0.0,0.0,63,0.00,,,0.00,Wunderground v.1.15,2013-08-12 22:24:00,
2013-08-12 18:35:00,77.6,64.9,29.92,SSE,151,0.0,0.0,65,0.00,,,0.00,Wunderground v.1.15,2013-08-12 22:35:00,
2013-08-12 18:40:00,77.1,64.0,29.92,SSE,151,0.0,0.0,64,0.00,,,0.00,Wunderground v.1.15,2013-08-12 22:40:00,
2013-08-12 18:50:00,76.1,65.2,29.92,SSE,151,0.0,0.0,69,0.00,,,0.00,Wunderground v.1.15,2013-08-12 22:50:00,
2013-08-12 19:00:00,75.0,65.0,29.92,SSE,151,0.0,0.0,71,0.00,,,0.00,Wunderground v.1.15,2013-08-12 23:00:00,
2013-08-12 19:09:00,74.1,64.5,29.92,SSE,151,0.0,0.0,72,0.00,,,0.00,Wunderground v.1.15,2013-08-12 23:09:00,
2013-08-12 19:19:00,73.6,64.8,29.92,SSE,151,0.0,0.0,74,0.00,,,0.00,Wunderground v.1.15,2013-08-12 23:19:00,
2013-08-12 19:25:00,73.3,64.9,29.92,SSE,151,0.0,0.0,75,0.00,,,0.00,Wunderground v.1.15,2013-08-12 23:25:00,
2013-08-12 19:35:00,72.9,64.1,29.92,SSE,151,0.0,0.0,74,0.00,,,0.00,Wunderground v.1.15,2013-08-12 23:35:00,
2013-08-12 19:45:00,72.4,64.0,29.92,North,32767,-999.0,0.0,75,0.00,,,0.00,Wunderground v.1.15,2013-08-12 23:45:00,
2013-08-12 19:50:00,72.2,63.8,29.92,North,32767,-999.0,0.0,75,0.00,,,0.00,Wunderground v.1.15,2013-08-12 23:50:00,
2013-08-12 20:00:00,71.6,63.6,29.92,North,32767,-999.0,0.0,76,0.00,,,0.00,Wunderground v.1.15,2013-08-13 00:00:00,
2013-08-12 20:10:00,71.3,63.7,29.92,North,32767,-999.0,0.0,77,0.00,,,0.00,Wunderground v.1.15,2013-08-13 00:10:00,
2013-08-12 20:19:00,70.9,63.7,29.91,North,32767,-999.0,0.0,78,0.00,,,0.00,Wunderground v.1.15,2013-08-13 00:19:00,
2013-08-12 20:30:00,70.7,63.5,29.91,North,32767,-999.0,0.0,78,0.00,,,0.00,Wunderground v.1.15,2013-08-13 00:30:00,
2013-08-12 20:40:00,70.5,63.3,29.92,North,32767,-999.0,0.0,78,0.00,,,0.00,Wunderground v.1.15,2013-08-13 00:40:00,
2013-08-12 20:50:00,70.3,63.5,29.92,North,32767,-999.0,0.0,79,0.00,,,0.00,Wunderground v.1.15,2013-08-13 00:50:00,
2013-08-12 20:55:00,70.2,63.4,29.92,North,32767,-999.0,0.0,79,0.00,,,0.00,Wunderground v.1.15,2013-08-13 00:55:00,
2013-08-12 21:00:00,70.1,63.3,29.91,North,32767,-999.0,0.0,79,0.00,,,0.00,Wunderground v.1.15,2013-08-13 01:00:00,
2013-08-12 21:10:00,70.0,63.2,29.91,North,32767,-999.0,0.0,79,0.00,,,0.00,Wunderground v.1.15,2013-08-13 01:10:00,
2013-08-12 21:20:00,70.0,63.2,29.91,North,32767,-999.0,0.0,79,0.00,,,0.00,Wunderground v.1.15,2013-08-13 01:20:00,
2013-08-12 21:29:00,70.0,63.2,29.92,North,32767,-999.0,0.0,79,0.00,,,0.00,Wunderground v.1.15,2013-08-13 01:29:00,
2013-08-12 21:40:00,69.9,63.1,29.92,North,32767,-999.0,0.0,79,0.00,,,0.00,Wunderground v.1.15,2013-08-13 01:40:00,
2013-08-12 21:50:00,69.8,63.0,29.92,North,32767,-999.0,0.0,79,0.00,,,0.00,Wunderground v.1.15,2013-08-13 01:50:00,
2013-08-12 22:00:00,69.8,63.0,29.91,North,32767,-999.0,0.0,79,0.00,,,0.00,Wunderground v.1.15,2013-08-13 02:00:00,
2013-08-12 22:09:00,69.7,62.9,29.91,North,32767,-999.0,0.0,79,0.00,,,0.00,Wunderground v.1.15,2013-08-13 02:09:00,
2013-08-12 22:14:00,69.6,62.8,29.92,North,32767,-999.0,0.0,79,0.00,,,0.00,Wunderground v.1.15,2013-08-13 02:14:00,
2013-08-12 22:19:00,69.4,63.0,29.91,North,32767,-999.0,0.0,80,0.00,,,0.00,Wunderground v.1.15,2013-08-13 02:19:00,
2013-08-12 22:25:00,69.3,62.9,29.92,North,32767,-999.0,0.0,80,0.00,,,0.00,Wunderground v.1.15,2013-08-13 02:25:00,
2013-08-12 22:35:00,69.1,62.7,29.92,North,32767,-999.0,0.0,80,0.00,,,0.00,Wunderground v.1.15,2013-08-13 02:35:00,
2013-08-12 22:45:00,69.0,62.6,29.92,North,32767,-999.0,0.0,80,0.00,,,0.00,Wunderground v.1.15,2013-08-13 02:45:00,
2013-08-12 22:50:00,68.9,62.8,29.92,North,32767,-999.0,0.0,81,0.00,,,0.00,Wunderground v.1.15,2013-08-13 02:50:00,
2013-08-12 23:00:00,68.9,62.8,29.92,North,32767,-999.0,0.0,81,0.00,,,0.00,Wunderground v.1.15,2013-08-13 03:00:00,
2013-08-12 23:10:00,68.9,62.8,29.92,North,32767,-999.0,0.0,81,0.00,,,0.00,Wunderground v.1.15,2013-08-13 03:10:00,
2013-08-12 23:20:00,68.9,62.8,29.92,North,32767,-999.0,0.0,81,0.00,,,0.00,Wunderground v.1.15,2013-08-13 03:20:00,
2013-08-12 23:25:00,69.0,62.9,29.92,North,32767,-999.0,0.0,81,0.00,,,0.00,Wunderground v.1.15,2013-08-13 03:25:00,
2013-08-12 23:35:00,68.9,62.8,29.92,North,32767,-999.0,0.0,81,0.00,,,0.00,Wunderground v.1.15,2013-08-13 03:35:00,
2013-08-12 23:40:00,68.9,62.8,29.92,North,32767,-999.0,0.0,81,0.00,,,0.00,Wunderground v.1.15,2013-08-13 03:40:00,
2013-08-12 23:54:00,68.9,63.2,29.92,North,32767,-999.0,0.0,82,0.00,,,0.00,Wunderground v.1.15,2013-08-13 03:54:00,